Theta_e
269 269 268 268 267 267 267 266 266 266 266 266 266 266 266 266 266 266 266 266 266 266 266 266 266 266 266 266 266 266 266 267 267 268 268 268 268 268 268 268 268 268 268 268 268 268 268 269 269 269 269 270 270 270 270 271 271 272 273 274 276 278 279 280 280 280 280 281 281 281 281 281 282 282 282 282 283 283 283 284 284 284 284 285 285
269 268 268 267 267 266 266 266 266 266 266 265 265 265 265 265 265 266 266 266 266 265 265 265 266 266 265 265 266 266 266 267 267 267 268 268 268 268 268 268 268 268 268 268 268 268 268 268 268 269 269 269 269 269 269 270 270 271 272 272 274 276 278 279 280 280 280 280 281 281 281 281 281 281 281 281 282 282 282 283 283 283 283 284 284
269 268 267 267 267 266 266 266 266 265 265 265 265 265 265 265 265 265 265 265 265 265 265 265 265 265 265 265 265 266 266 267 267 267 267 268 268 268 268 268 268 268 268 268 268 268 268 268 268 268 268 268 268 269 269 269 270 271 271 271 272 273 276 278 279 279 280 280 280 281 281 281 280 280 280 280 281 281 281 282 282 282 282 283 283
269 268 267 267 266 266 265 265 265 265 265 265 265 265 265 265 265 265 265 265 265 265 265 265 265 265 265 265 265 266 266 266 267 267 267 267 267 268 268 268 268 268 268 268 268 268 268 268 268 268 268 268 268 269 269 269 270 270 270 271 271 272 273 276 278 279 279 279 280 280 280 280 280 280 280 280 280 280 280 280 281 281 281 282 282
268 268 267 266 266 265 265 265 265 265 264 264 264 264 264 264 264 264 264 264 264 265 265 264 264 264 264 265 265 265 266 266 266 266 267 267 267 267 267 267 268 268 268 268 268 268 268 268 268 268 268 268 268 269 269 269 269 270 270 270 271 271 272 273 276 277 278 278 279 279 279 279 279 279 279 279 279 279 279 280 280 280 281 281 281
268 267 267 266 265 265 265 265 265 264 264 264 264 264 264 264 264 264 264 264 264 264 264 264 264 264 264 264 265 265 265 265 266 266 266 266 267 267 267 267 268 268 268 268 268 268 268 268 268 268 268 268 268 269 269 269 269 269 269 270 270 271 272 272 274 276 277 278 278 278 279 279 279 279 279 279 279 279 279 279 280 280 280 281 281
268 267 266 265 265 265 265 264 264 264 264 264 264 264 264 264 264 264 264 264 264 263 263 263 263 263 264 264 264 264 265 265 265 266 266 266 267 267 267 268 268 268 268 268 268 268 268 268 268 268 268 268 268 269 269 269 269 269 269 270 270 271 272 272 273 274 276 277 278 278 278 278 278 278 279 279 279 279 279 280 280 280 280 281 281
267 266 266 265 265 265 264 264 264 264 264 264 264 264 264 263 263 264 264 263 263 263 263 263 263 263 263 263 263 264 264 264 265 265 266 266 267 267 268 268 268 268 269 269 269 269 269 269 268 268 268 268 268 268 268 268 268 269 269 270 271 271 271 272 272 273 275 276 277 278 278 278 278 278 279 279 280 280 280 280 281 280 280 281 281
267 266 265 265 265 264 264 264 264 264 264 264 264 263 263 263 263 263 263 263 262 262 262 262 262 262 262 263 263 263 264 264 264 265 266 267 268 268 269 269 269 269 270 270 270 270 270 269 269 269 269 269 269 268 269 269 268 269 269 270 270 270 271 271 271 272 274 275 276 277 278 278 278 278 279 278 279 279 279 280 280 280 280 281 281
266 266 265 265 265 264 264 264 264 264 263 263 263 263 263 263 263 263 262 262 262 262 262 262 262 262 262 263 263 264 264 264 265 266 268 269 269 270 270 271 271 271 271 271 271 271 270 270 270 270 270 269 269 269 270 270 270 270 270 270 270 270 271 271 271 272 273 274 275 276 277 278 278 278 278 278 278 278 279 279 279 279 280 281 281
266 266 265 265 265 264 264 264 264 263 263 263 263 263 263 263 262 262 262 261 261 261 261 261 262 262 262 263 263 263 264 265 265 267 269 270 271 272 272 272 272 272 272 271 272 272 271 271 271 271 271 270 270 270 270 271 271 271 271 271 271 272 271 272 272 272 273 273 274 275 276 276 277 278 278 278 278 278 278 279 280 280 280 281 281
266 266 265 265 264 264 264 264 263 263 263 263 262 262 262 262 262 261 261 261 261 261 261 261 261 262 262 263 263 263 264 266 266 268 269 271 273 273 274 274 275 274 274 273 272 272 272 272 272 272 272 272 271 271 271 271 271 272 272 272 273 273 273 273 273 272 273 273 273 274 275 275 276 277 277 277 277 277 277 278 280 280 281 281 282
266 265 265 265 264 264 264 263 263 263 262 262 262 262 262 261 261 261 260 260 260 261 261 261 261 262 262 263 263 264 265 267 268 268 270 272 273 274 275 276 276 277 277 276 274 273 273 273 272 273 273 272 272 271 271 271 271 272 272 272 273 273 273 274 274 274 274 274 274 274 274 274 275 275 276 276 277 277 277 278 278 279 280 281 281
266 265 265 264 264 264 263 263 263 262 262 262 262 261 261 261 261 260 260 260 260 260 261 261 261 262 263 263 264 265 266 268 268 269 270 272 274 275 277 277 277 277 278 278 276 274 274 273 273 274 274 273 273 272 272 272 272 271 272 272 272 272 273 273 274 274 275 275 275 275 274 274 275 275 275 275 276 276 276 277 277 277 279 280 281
266 265 265 264 264 263 263 263 262 262 262 262 261 261 261 260 260 260 260 260 260 260 261 261 262 263 263 264 264 265 267 268 269 269 271 273 275 276 277 277 277 277 277 278 277 276 275 274 274 274 274 274 274 273 273 272 272 271 271 271 272 272 272 272 272 273 274 275 275 276 276 275 275 275 275 275 276 276 276 276 277 277 279 279 280
265 265 264 264 264 263 263 262 262 262 261 261 261 261 260 260 260 260 260 260 260 260 261 261 262 263 264 264 265 265 267 269 269 270 272 274 275 277 277 277 276 276 277 277 277 277 277 275 275 275 275 275 275 274 273 273 272 271 271 271 272 272 272 273 273 272 273 273 274 274 275 275 276 276 276 276 276 276 276 276 277 277 279 279 279
265 265 264 264 264 263 263 262 262 261 261 261 260 260 260 259 259 259 259 259 260 260 261 262 262 263 264 265 265 266 268 270 270 271 273 274 276 276 276 276 276 275 276 276 277 277 277 276 276 276 275 276 276 275 274 273 273 272 271 271 271 271 272 274 274 273 273 273 273 274 274 274 275 276 276 277 277 277 276 276 277 277 278 279 279
265 265 265 264 264 263 263 262 262 261 261 260 260 260 259 259 259 259 259 260 260 261 261 261 262 263 264 265 266 266 268 270 271 271 273 275 275 275 275 275 275 275 275 276 276 277 277 277 277 277 276 277 277 276 275 275 274 274 273 272 272 271 272 274 273 273 273 273 274 274 275 275 275 275 275 276 277 277 277 277 277 278 278 279 280
266 265 265 264 264 263 262 262 261 261 260 260 260 259 259 259 259 259 260 260 260 261 261 261 262 263 264 266 266 266 267 269 271 271 273 274 275 274 274 274 275 275 275 275 276 276 276 276 277 277 277 277 278 277 277 276 276 275 274 274 273 272 274 274 273 273 273 273 274 274 274 275 275 275 275 275 276 277 277 278 278 278 278 279 279
266 266 265 264 263 263 262 261 261 260 260 259 259 259 259 259 259 259 260 260 260 261 261 262 262 264 265 266 267 268 268 269 271 272 273 274 274 273 273 274 274 274 274 275 275 276 275 275 275 276 277 277 278 278 278 278 278 277 276 275 274 275 276 275 274 274 274 273 274 274 274 274 274 274 274 275 275 276 277 277 278 277 277 278 278
266 266 265 264 263 262 262 261 261 260 260 259 259 259 259 259 259 260 260 260 261 261 262 262 263 264 266 267 268 269 269 270 271 272 272 273 272 272 273 273 273 274 274 275 275 276 275 274 274 275 276 277 277 277 277 278 278 278 278 277 277 277 277 276 275 275 274 274 274 273 273 273 273 273 273 274 274 275 276 277 277 276 276 277 277
266 265 264 263 263 262 261 261 260 260 259 259 258 258 259 259 260 260 260 261 261 262 262 263 263 265 266 268 268 269 270 270 271 271 271 272 272 272 272 273 273 274 274 275 275 275 275 274 274 275 275 276 276 276 276 277 278 278 279 278 278 279 278 278 277 276 275 274 274 273 272 272 272 272 272 272 273 274 275 275 276 276 276 276 276
266 264 264 263 262 262 261 260 260 259 259 258 258 258 259 260 260 260 261 261 261 262 262 263 264 264 266 268 269 270 270 270 270 270 270 270 271 271 272 273 273 274 274 275 275 275 274 274 274 274 274 275 276 276 277 278 278 278 279 279 279 279 279 279 278 277 276 275 274 273 273 272 272 272 272 272 272 273 273 274 275 275 275 275 276
265 264 263 263 262 261 261 260 260 259 259 258 258 258 259 260 260 261 261 261 261 262 263 263 263 264 265 268 269 270 270 270 270 270 269 270 270 271 272 272 273 273 274 274 274 274 273 273 273 274 275 276 276 277 277 277 278 278 278 279 279 279 280 280 279 278 276 275 274 274 274 274 273 273 273 274 273 273 273 273 274 274 275 276 277
264 264 263 262 262 261 260 260 259 259 259 258 258 259 260 260 260 261 261 261 261 262 263 263 263 264 265 267 268 269 269 269 269 269 269 269 270 271 272 272 273 273 273 273 273 273 273 274 274 275 276 276 276 276 276 276 276 277 277 277 278 278 279 279 280 279 277 276 275 275 275 275 275 275 275 275 274 273 273 274 274 275 276 277 278
264 263 262 262 262 261 260 259 259 259 259 259 259 259 260 260 260 261 261 261 261 262 262 263 263 264 265 267 269 269 269 268 268 268 269 270 270 271 271 272 272 272 273 273 273 273 274 274 275 274 274 274 274 274 274 274 275 275 276 276 277 277 278 279 279 279 279 278 277 277 277 277 276 276 276 276 275 275 275 275 275 276 277 277 278
264 263 262 262 261 260 260 259 259 259 259 259 259 260 260 260 260 260 261 262 262 263 263 263 264 265 267 268 268 268 268 268 268 268 269 270 270 271 272 272 271 271 272 273 273 273 273 273 273 273 273 272 272 272 272 273 273 274 274 275 275 276 277 278 279 279 280 279 279 278 278 278 278 277 277 276 276 276 276 276 276 277 277 278 279
264 263 262 262 261 260 260 259 259 259 259 259 259 260 260 261 261 261 262 263 263 264 264 265 265 267 268 268 268 267 267 267 267 268 269 270 270 271 271 271 271 271 272 273 272 272 272 272 271 271 271 271 271 271 271 271 271 272 273 273 274 274 275 276 278 279 279 280 280 280 279 279 279 278 278 278 277 277 277 277 277 278 278 278 279
263 262 262 261 260 260 259 259 259 259 259 259 260 260 261 261 261 262 263 264 264 265 266 267 267 268 268 268 267 267 267 267 268 269 270 271 271 271 271 271 271 272 272 272 271 271 270 270 269 269 268 268 268 268 268 269 269 270 271 271 272 272 273 274 275 276 277 278 279 280 280 280 279 279 279 278 278 278 278 278 278 278 278 279 279
263 262 261 261 260 259 259 259 259 259 259 259 260 260 261 261 262 263 264 265 265 266 267 268 269 269 268 268 268 267 267 268 268 270 270 271 271 271 271 271 271 271 271 270 270 269 268 267 266 266 265 264 264 264 265 265 266 267 268 269 269 270 270 271 272 272 274 275 277 278 280 280 280 280 279 279 279 279 279 279 279 279 279 279 280
262 261 261 260 260 259 259 259 259 259 259 259 259 260 261 261 262 263 264 265 266 267 268 269 269 268 268 268 267 267 267 268 269 270 270 270 270 270 270 270 269 269 269 269 268 267 265 264 263 262 262 262 262 262 262 262 262 263 264 265 267 268 268 269 270 270 271 273 274 276 278 279 280 280 280 280 279 279 279 279 279 279 279 280 280
263 262 261 260 260 259 259 259 259 259 259 259 259 260 260 261 262 263 264 265 266 267 267 267 267 267 267 267 267 267 268 269 269 269 269 269 269 269 269 268 267 267 267 267 266 264 262 261 260 260 260 260 260 260 260 260 260 261 261 263 264 266 267 268 268 269 270 271 272 273 275 277 279 279 280 280 280 279 280 280 280 280 280 280 281
264 263 262 260 259 259 258 258 259 259 258 259 259 259 260 260 261 262 263 264 265 265 266 265 266 266 266 266 267 267 268 268 268 268 268 267 267 268 268 267 265 265 265 265 263 261 259 259 259 259 259 259 259 259 259 259 259 260 260 261 262 264 266 267 268 268 269 269 270 271 272 274 276 278 279 280 280 280 280 279 280 280 280 281 281
265 264 262 261 260 259 258 258 259 259 259 259 259 259 260 260 261 261 262 263 263 263 264 263 264 264 264 265 266 267 267 267 267 267 266 266 266 266 266 265 265 264 264 262 260 259 258 258 258 258 258 258 258 258 259 259 259 259 260 260 261 263 265 266 267 267 268 269 269 270 271 272 273 275 276 278 279 280 280 279 279 280 280 281 281
264 263 262 261 260 259 259 258 258 258 259 259 259 259 260 260 260 261 261 262 262 262 262 262 262 262 263 263 264 265 266 266 266 265 265 264 264 264 264 264 263 262 261 260 259 258 258 258 258 258 258 258 258 258 258 259 259 259 259 260 260 262 263 265 265 266 266 267 268 269 269 270 271 272 273 275 276 278 279 280 280 280 280 281 281
263 262 261 260 260 259 259 258 258 258 259 259 259 259 260 260 261 261 261 261 261 261 261 261 261 262 262 262 263 263 265 265 264 264 263 262 262 263 263 262 260 260 259 258 258 258 258 258 258 258 258 258 258 258 258 258 259 259 259 259 260 261 262 262 263 264 265 266 267 267 268 269 270 271 272 272 274 275 277 279 280 280 280 280 281
263 262 261 260 260 259 258 258 258 258 258 259 259 259 260 260 261 261 261 261 261 261 261 261 261 261 261 261 261 262 263 263 262 262 261 261 262 262 261 259 258 258 258 257 257 258 258 258 258 258 258 258 258 258 258 258 258 259 259 260 260 261 261 261 262 263 263 264 266 266 267 268 269 270 270 270 271 273 274 276 279 280 281 280 280
263 262 262 261 260 259 258 257 257 257 258 258 259 259 260 260 261 261 261 261 261 260 260 260 260 261 261 261 261 261 261 261 261 261 261 261 261 260 259 258 258 257 257 257 257 257 257 258 258 258 258 258 258 258 258 258 258 259 259 260 260 260 260 261 262 263 263 263 264 265 265 266 267 268 269 269 269 271 272 274 275 278 280 281 281
262 261 261 260 259 258 258 257 257 257 257 258 258 259 260 260 261 261 261 261 260 260 260 260 260 260 260 260 260 260 260 261 261 260 260 260 259 259 258 258 258 257 257 257 257 257 257 258 258 258 258 258 258 258 258 258 258 258 259 259 260 260 260 261 261 262 262 262 263 263 264 264 266 267 268 268 268 269 271 272 273 275 278 280 281
261 260 259 259 258 258 257 257 257 257 257 258 258 259 260 260 260 261 261 261 260 260 260 260 260 260 260 260 260 260 260 260 259 259 259 259 258 258 259 258 258 258 257 257 257 257 257 257 258 258 258 258 258 258 258 258 258 259 259 259 259 260 260 260 260 260 261 261 262 262 263 263 264 265 266 267 268 269 269 271 272 273 275 278 280
260 259 259 258 258 258 257 257 257 257 258 258 259 259 260 260 260 261 261 261 260 260 260 260 260 260 261 261 261 260 260 260 259 258 258 258 258 258 258 258 258 258 258 257 257 257 257 258 258 258 258 258 258 258 259 259 259 259 259 259 259 259 259 260 259 260 260 261 261 262 262 263 263 264 264 266 267 268 269 270 272 273 274 276 278
260 259 258 258 258 258 257 257 258 258 258 258 259 259 260 260 260 261 261 260 260 260 260 260 259 260 260 261 261 260 260 259 259 258 258 258 258 258 258 258 258 258 258 258 257 257 257 258 258 258 258 259 259 259 259 259 259 259 260 260 259 259 259 259 259 259 260 260 261 262 262 263 263 263 264 265 266 268 269 270 271 272 273 274 276
260 259 258 258 258 258 258 258 258 258 259 259 259 259 260 260 260 260 260 260 260 260 260 260 259 259 259 260 260 259 259 258 258 258 258 257 258 258 258 258 258 258 258 257 257 258 258 258 258 258 258 258 258 258 259 259 259 259 259 259 259 259 259 259 260 260 260 260 261 262 262 263 263 264 264 265 266 267 268 269 270 271 272 273 275
259 259 258 258 258 258 258 258 259 259 259 259 259 259 260 260 260 260 260 260 260 260 260 260 259 259 259 259 258 258 258 258 258 257 257 257 257 257 257 258 257 257 257 257 258 258 258 258 258 258 258 258 258 258 258 259 259 259 259 259 259 260 260 260 260 260 260 261 261 262 262 263 264 264 264 265 266 266 267 269 269 270 271 272 273
259 258 258 258 258 258 258 258 258 258 258 258 259 259 260 260 260 260 260 260 260 260 260 260 259 259 259 258 258 258 257 257 257 257 257 257 257 257 257 257 257 257 257 258 258 258 258 258 258 258 258 258 258 258 259 259 259 259 258 258 259 259 259 260 260 261 261 261 262 262 263 263 264 264 264 265 265 266 267 268 269 269 270 271 272
259 258 258 258 258 258 258 258 258 258 258 258 259 259 259 260 260 260 260 260 260 260 260 259 259 259 258 258 258 257 257 257 257 257 256 256 256 256 256 256 257 257 257 257 257 257 257 258 258 258 258 258 258 258 258 259 259 259 258 258 259 259 259 260 260 261 262 262 262 263 263 264 264 265 265 265 265 266 266 267 268 268 269 270 270
258 258 258 258 258 258 258 258 258 258 258 258 259 259 259 259 259 259 259 260 260 260 260 259 259 259 258 258 258 257 257 257 257 256 256 256 256 256 256 256 256 257 257 257 257 257 257 257 257 258 258 258 258 258 258 258 258 259 258 258 259 259 259 260 261 261 262 262 263 263 264 264 265 265 265 265 266 266 266 267 267 268 268 269 269
258 258 258 258 258 258 258 258 258 258 258 258 259 259 259 259 259 259 259 259 259 259 259 259 259 259 258 258 258 257 257 257 256 256 256 256 256 256 256 256 256 256 256 256 257 257 257 257 257 257 257 258 258 258 258 258 258 259 259 259 259 259 259 260 261 261 262 263 263 263 264 264 265 265 265 265 266 266 266 266 267 267 268 268 268
258 258 258 258 258 258 258 258 258 258 258 258 258 258 258 259 259 259 259 259 259 259 259 259 258 258 258 258 257 257 256 256 256 256 256 255 255 255 256 256 256 256 256 256 256 256 256 256 256 257 257 257 257 257 257 258 258 259 259 258 259 259 259 260 260 261 262 263 263 263 264 264 265 265 265 265 266 266 266 266 266 267 267 267 267
257 257 257 257 257 258 258 258 258 258 258 258 258 258 258 258 258 258 258 258 258 258 258 258 258 258 257 257 257 257 256 256 256 256 255 255 255 255 255 255 255 256 256 256 256 256 256 256 256 256 256 256 256 257 257 258 258 258 258 258 258 258 259 260 260 261 262 262 262 263 263 264 264 265 265 265 266 265 266 266 266 266 266 266 266
257 257 257 257 257 257 258 257 258 258 258 258 258 258 258 258 258 258 258 258 258 258 258 258 257 257 257 257 256 256 256 256 256 255 255 255 255 255 255 255 255 255 256 256 256 256 256 256 256 256 256 256 256 256 257 257 258 258 258 258 258 258 259 260 260 261 261 262 262 262 263 263 264 264 265 265 265 265 265 265 266 266 266 266 266
Wind_Speed
21 20 20 19 18 17 16 16 16 16 16 17 18 18 17 17 16 16 16 17 17 18 20 21 21 21 22 22 22 21 19 18 17 16 17 18 19 20 20 20 20 20 20 20 20 20 20 20 20 19 18 17 17 17 17 16 16 16 15 14 14 14 14 13 9 7 10 12 12 13 13 14 15 16 16 17 16 15 15 15 14 14 13 12 11
21 21 20 19 18 17 16 17 17 17 17 18 19 19 19 18 17 16 17 18 19 19 20 20 20 21 22 23 21 19 17 17 17 17 17 18 19 20 21 21 22 22 22 22 22 22 22 22 22 21 21 22 22 21 20 19 17 16 16 15 14 13 12 13 12 8 7 11 13 12 12 13 15 16 17 18 19 19 19 19 19 19 19 18 17
21 21 20 19 19 18 18 18 18 18 18 19 20 19 18 18 17 18 19 19 20 19 18 18 19 21 23 23 20 17 17 17 17 18 18 18 19 19 20 20 21 22 23 24 24 24 24 24 24 24 23 23 24 24 23 21 18 17 18 17 17 16 14 12 13 11 8 10 12 12 12 13 14 16 16 17 19 20 21 22 22 22 22 22 22
21 20 20 20 20 19 19 19 19 19 19 19 19 18 18 18 18 18 19 19 20 18 17 18 20 22 22 21 18 17 17 17 18 19 19 19 20 21 22 22 23 23 23 24 24 24 25 26 26 25 24 23 23 24 23 22 20 18 18 19 18 18 16 14 12 12 11 10 12 13 13 13 14 15 16 17 19 21 22 23 23 24 25 25 25
21 20 20 20 20 20 20 19 19 20 20 19 18 18 18 18 17 18 19 19 18 17 18 19 20 21 20 18 17 17 17 18 19 20 21 21 23 24 25 26 26 25 25 25 25 25 26 27 27 26 25 24 24 23 23 22 21 20 19 19 18 18 17 16 14 13 12 12 13 15 14 13 14 15 16 18 20 21 22 23 23 24 26 26 26
22 21 20 20 21 20 20 20 19 19 18 18 17 17 17 17 18 18 18 17 17 18 20 21 20 18 17 17 18 18 18 18 19 21 21 21 22 23 25 26 27 27 27 28 28 27 27 28 28 27 26 26 25 24 23 22 23 22 21 20 20 18 18 17 15 14 13 13 14 16 16 15 15 16 16 17 18 19 21 23 24 23 24 25 27
22 21 20 21 20 18 19 20 19 17 16 16 17 17 17 18 18 17 17 17 18 20 21 21 19 17 16 18 18 18 19 20 20 21 21 21 22 23 25 26 27 28 28 29 28 28 29 29 29 29 28 28 27 25 25 24 24 24 23 22 20 18 17 16 15 14 14 13 13 14 16 17 17 15 14 14 16 17 17 18 20 22 22 22 24
22 21 20 21 19 18 18 19 18 16 15 16 17 17 17 17 17 17 17 18 20 20 20 20 19 18 18 19 19 19 20 21 22 22 22 22 22 23 25 26 28 29 29 29 29 29 29 29 30 30 30 30 30 29 28 28 27 26 24 22 20 19 18 17 16 15 15 14 13 13 14 16 17 15 11 8 10 12 13 15 17 20 20 20 22
22 21 21 22 20 18 17 16 15 15 15 16 17 17 17 16 16 17 18 19 20 20 19 20 20 20 20 20 20 19 19 21 22 21 21 22 23 24 25 27 29 31 31 30 30 29 29 29 29 29 29 29 30 30 29 29 28 28 26 25 23 22 20 19 18 17 16 15 13 13 12 13 15 15 12 10 10 12 13 14 15 16 18 21 24
22 21 22 22 21 18 16 15 15 16 16 16 17 17 16 16 17 18 19 19 19 19 20 20 19 19 18 19 19 18 19 22 22 21 22 23 24 26 28 30 32 34 35 35 33 31 30 31 30 29 28 27 27 27 26 26 26 27 27 27 26 25 23 21 20 18 17 15 15 14 12 10 12 15 16 15 14 14 13 13 14 16 17 18 21
22 22 22 22 20 18 16 15 16 17 16 15 16 16 16 16 17 18 19 19 19 19 19 19 18 17 17 17 18 20 22 23 22 22 23 24 25 27 30 32 33 33 35 37 36 33 30 30 30 29 28 27 26 25 25 24 25 25 26 27 26 26 25 24 22 21 19 17 17 16 14 13 13 14 15 16 15 14 13 13 13 15 14 12 13
22 22 22 20 18 16 16 16 16 17 16 15 15 16 16 17 17 18 19 19 19 18 18 18 18 17 17 19 21 23 24 24 22 22 24 24 24 25 29 32 33 33 34 36 35 32 29 30 29 28 28 27 26 26 25 25 25 24 25 26 26 26 27 26 25 24 22 21 19 19 19 17 16 16 17 17 17 16 16 15 14 14 14 12 12
22 21 21 19 17 16 17 17 17 17 17 16 16 16 17 17 18 19 19 19 18 17 17 17 18 18 19 20 22 23 23 22 20 21 23 24 24 25 29 29 27 27 29 32 33 30 28 29 28 28 27 26 26 26 26 26 26 25 25 25 26 27 27 28 29 28 27 25 23 24 24 21 19 20 21 20 19 18 17 17 17 18 17 16 17
21 20 20 19 18 18 18 19 18 18 17 16 16 16 17 18 19 18 18 17 17 17 17 18 19 19 19 19 20 21 21 20 19 20 23 23 23 26 26 20 16 16 18 23 28 28 28 29 28 27 26 25 25 25 25 26 27 27 27 28 29 29 29 29 30 30 31 30 27 28 28 27 27 27 24 22 22 21 20 20 21 21 21 20 22
20 20 20 20 20 19 19 18 18 18 17 16 16 17 18 19 18 17 16 17 17 18 18 19 19 18 17 17 19 21 20 18 18 20 22 21 22 24 20 14 12 14 14 15 19 24 26 27 28 27 26 25 25 24 24 26 26 26 28 29 31 32 33 33 33 33 33 33 31 29 27 26 29 29 27 26 26 26 25 24 24 24 23 22 23
21 20 21 21 21 19 19 18 18 18 17 16 17 17 18 18 17 16 16 17 18 18 17 17 17 17 16 16 18 21 19 17 16 18 19 19 21 21 17 12 13 13 12 13 14 19 23 25 26 26 26 26 26 25 24 24 25 26 27 29 30 31 32 34 34 35 36 36 37 35 31 28 25 24 24 25 26 27 27 25 25 24 22 19 19
22 21 21 21 21 20 19 18 18 18 17 17 18 18 17 17 16 16 17 17 17 17 16 16 16 16 17 16 18 20 18 14 14 16 18 18 17 16 15 13 13 13 12 11 12 13 17 21 23 24 25 26 26 26 24 23 24 26 27 28 29 29 31 32 32 33 34 34 35 37 37 35 32 29 26 24 24 25 24 23 24 23 18 13 13
23 22 22 22 21 20 18 18 18 18 18 18 18 17 16 16 17 17 16 16 16 15 15 15 16 16 16 16 16 17 18 15 13 15 17 16 14 13 15 14 13 13 12 11 10 11 11 14 17 20 23 23 23 23 22 23 25 26 27 28 27 28 32 33 31 31 31 31 31 32 32 33 33 34 35 32 28 26 24 24 23 20 15 12 11
24 23 22 21 20 18 17 17 18 18 18 19 18 17 16 17 17 16 15 14 14 14 14 15 17 16 15 15 15 16 18 16 13 13 14 13 12 13 15 15 14 14 13 12 12 12 12 13 13 16 20 21 21 22 22 22 25 28 29 27 26 30 35 34 30 30 30 30 31 32 32 32 31 32 35 37 35 33 31 30 25 20 16 15 14
24 22 20 19 18 17 17 17 18 18 19 18 17 17 17 17 16 15 14 13 13 15 15 15 17 17 15 15 15 14 16 15 12 12 13 12 11 13 15 15 15 15 15 14 15 15 14 16 16 15 16 18 19 20 21 21 23 27 29 28 28 33 36 31 29 31 30 29 30 30 31 33 33 33 33 34 37 38 37 35 31 26 21 19 18
22 19 18 18 17 17 17 17 17 17 17 17 17 18 17 16 15 14 14 13 13 15 14 14 17 17 16 15 14 12 13 13 12 11 10 11 12 14 15 16 16 16 17 17 17 15 13 15 17 16 15 17 18 20 21 21 22 23 25 29 32 35 35 30 30 30 28 29 29 28 29 30 31 33 33 33 36 38 39 38 36 33 29 25 23
20 19 18 18 18 17 17 17 16 16 16 16 17 17 15 14 14 14 13 13 13 13 14 14 16 17 15 13 12 12 11 10 9 9 9 12 14 15 14 14 15 16 17 17 16 14 12 14 16 17 17 18 20 21 21 22 22 23 23 25 28 31 33 33 31 27 25 27 26 25 26 26 27 29 31 33 35 38 39 39 38 38 36 34 31
20 18 18 19 18 17 16 16 15 15 15 15 16 16 14 13 13 13 12 12 12 13 14 14 14 16 15 12 11 11 9 6 7 9 12 15 16 14 14 13 14 15 17 17 16 14 13 15 17 18 18 19 20 21 21 22 23 24 25 25 25 25 27 31 30 26 25 25 24 23 24 24 25 27 29 31 35 38 41 41 40 40 39 37 36
19 19 19 19 18 17 16 14 14 14 14 14 15 15 14 13 12 12 11 11 12 13 13 12 13 14 14 13 12 10 7 5 8 12 15 16 15 14 13 13 13 15 16 17 16 15 16 17 19 19 19 18 18 19 19 19 18 18 18 20 21 20 20 23 25 26 25 24 24 26 26 24 25 27 29 31 33 34 37 38 38 38 37 34 34
20 21 20 19 18 16 15 14 13 13 13 13 14 14 13 12 12 11 11 11 11 13 13 12 12 13 13 14 13 9 6 7 11 15 16 14 13 13 13 13 13 14 15 17 17 17 17 18 18 17 16 15 15 16 16 17 17 17 17 17 18 18 18 19 19 21 24 24 25 27 27 26 27 29 30 29 27 27 28 30 31 33 33 33 34
22 21 20 19 18 16 15 14 13 13 13 13 14 14 13 12 13 12 12 11 11 12 12 12 12 12 12 12 9 8 9 11 15 17 14 11 12 14 14 13 14 14 15 16 16 15 15 14 14 14 14 14 15 16 18 19 18 18 16 15 15 14 15 16 17 19 22 23 24 25 26 27 28 29 28 25 23 23 25 26 27 29 31 31 32
23 22 21 20 18 16 16 14 13 12 12 13 13 13 13 12 13 13 13 12 11 11 11 11 10 11 11 8 7 9 11 13 16 16 12 11 15 16 13 12 15 17 18 15 11 10 12 13 13 14 14 13 13 13 13 14 13 12 11 10 9 10 10 12 15 17 19 21 23 24 26 27 26 25 24 24 24 25 25 25 25 26 27 28 27
24 23 22 20 18 17 16 14 13 12 13 14 14 13 13 13 13 14 13 12 11 11 10 10 11 11 10 7 7 9 10 12 15 14 13 16 18 15 12 14 17 17 15 10 7 8 11 13 12 11 10 10 9 8 8 7 7 6 6 6 6 6 6 8 11 13 15 17 20 23 24 24 23 23 23 23 24 25 26 25 25 25 25 25 24
24 23 22 20 18 17 16 15 14 13 13 14 14 14 13 12 13 12 11 10 11 11 11 12 13 12 8 6 6 7 9 12 14 14 15 17 15 12 14 15 14 10 7 5 7 9 10 9 6 5 5 5 5 5 6 6 6 5 5 5 6 6 6 5 6 7 8 10 13 17 20 20 20 21 22 22 23 24 25 25 25 24 24 24 23
25 23 21 20 19 18 16 15 14 13 14 14 13 13 13 12 12 12 11 10 11 11 12 14 13 9 7 7 7 7 10 13 14 13 13 13 11 12 13 11 7 6 6 7 9 8 5 3 3 5 6 6 6 7 9 9 9 9 8 7 7 8 8 8 9 9 8 7 8 11 15 18 20 20 20 21 23 24 25 25 25 24 23 22 21
26 24 22 21 20 19 18 16 14 14 14 13 12 11 11 11 13 13 12 11 11 11 11 11 9 7 7 8 7 8 11 12 11 10 10 10 10 12 10 7 7 8 8 8 6 3 3 4 5 6 7 7 7 7 9 10 11 11 11 10 9 9 10 10 11 12 11 10 8 7 9 13 18 20 21 22 21 22 23 24 25 25 24 22 21
29 27 24 23 21 19 17 16 15 14 15 14 13 11 10 10 11 12 10 8 8 8 7 6 5 5 6 6 6 8 9 9 8 8 8 9 9 9 6 7 8 7 7 4 1 3 6 6 7 8 8 8 8 8 9 10 11 11 11 11 11 10 11 11 12 12 12 11 10 9 8 7 10 14 18 21 20 18 18 20 22 23 23 23 22
31 29 26 23 21 19 17 17 16 16 16 15 14 12 11 10 9 10 10 8 6 5 4 3 3 4 5 5 5 7 8 7 6 7 8 8 8 5 3 5 7 7 4 1 5 7 8 8 9 9 8 9 10 10 10 10 10 10 11 11 12 12 11 10 10 11 12 11 10 10 9 7 6 7 11 15 17 17 17 17 18 19 20 19 19
32 30 26 24 22 21 19 18 17 16 16 16 14 13 12 10 8 8 8 8 7 7 6 4 3 3 3 3 4 6 5 5 5 6 7 7 6 3 4 3 2 5 5 7 9 9 9 9 9 9 9 9 10 11 11 11 11 11 11 12 12 12 11 9 9 12 12 11 10 10 9 8 7 6 7 9 11 14 16 17 17 17 16 16 15
31 29 26 24 23 21 20 19 17 17 16 17 16 14 12 10 9 9 8 8 7 6 5 5 4 2 1 2 3 5 4 3 4 6 7 7 4 2 5 4 0 4 7 9 10 9 9 9 9 9 9 10 10 11 12 12 12 12 12 13 13 13 11 10 10 12 13 12 10 10 10 9 8 6 6 8 9 10 12 16 18 18 17 16 16
31 29 27 25 23 22 20 19 18 17 17 17 16 14 12 10 10 9 9 8 7 6 4 3 2 3 2 1 2 3 4 4 5 7 8 8 4 1 3 4 6 7 8 9 9 8 8 8 8 9 9 10 10 11 11 11 12 12 12 12 13 13 12 12 12 12 12 11 10 10 10 9 9 8 7 7 9 10 11 12 16 20 21 20 19
32 30 28 26 24 22 20 19 17 16 16 17 16 14 13 11 10 9 9 8 8 7 5 3 2 3 4 2 0 1 1 2 3 4 6 6 4 5 7 9 8 8 9 9 8 7 7 7 8 9 9 9 10 11 11 11 11 11 11 11 11 11 11 11 11 11 11 11 10 10 10 10 10 9 9 8 9 10 11 12 12 15 21 23 22
32 31 29 27 24 22 19 17 16 15 15 16 16 15 14 12 11 11 10 9 8 7 5 4 3 3 2 1 1 1 0 2 2 0 2 4 6 8 9 9 8 8 8 8 7 7 7 7 7 8 9 9 10 11 12 12 12 12 12 12 11 11 11 11 11 11 11 11 11 10 10 10 11 10 10 10 10 11 11 12 12 11 14 19 21
31 29 28 26 23 22 20 18 17 15 15 16 16 16 15 14 12 12 11 10 8 8 6 5 4 3 2 0 2 3 1 2 2 2 4 5 7 8 8 8 8 7 7 7 7 7 6 6 7 7 7 8 9 10 11 13 13 13 14 14 13 13 13 14 14 14 13 13 13 12 11 11 11 10 10 10 11 11 12 12 13 13 11 13 17
30 28 27 24 22 21 20 19 18 18 17 17 17 17 16 15 14 14 13 11 10 9 7 6 5 4 2 1 2 3 2 2 3 3 4 4 5 5 6 6 6 6 6 6 6 6 6 6 6 6 7 7 8 9 10 12 13 13 14 15 15 15 15 16 16 15 15 14 14 13 13 13 11 10 10 11 10 11 12 13 14 14 14 14 15
31 28 26 24 22 20 19 18 20 20 19 18 18 18 18 16 15 14 14 12 11 10 9 7 6 5 3 1 2 3 2 1 2 2 2 3 3 3 4 4 4 4 4 4 4 5 6 5 5 6 6 7 7 8 10 11 12 13 14 15 16 16 16 17 17 16 16 16 15 14 14 13 13 12 12 12 12 12 12 12 13 14 15 16 15
30 28 25 23 22 20 19 18 19 19 18 17 18 18 18 17 16 15 15 13 12 11 10 8 7 6 5 3 2 2 2 1 2 2 1 1 1 1 2 1 1 1 2 3 4 4 5 5 5 6 6 7 8 9 10 11 12 13 15 16 16 17 18 18 18 18 18 17 16 15 15 14 13 13 13 12 13 13 12 12 13 13 14 15 16
29 29 26 23 22 22 21 19 17 17 18 18 18 18 18 17 16 15 15 14 12 12 12 10 8 8 7 6 6 5 3 3 3 3 2 1 1 0 0 1 1 1 1 2 2 3 3 4 4 5 5 6 7 7 8 10 11 13 14 15 16 17 18 19 20 20 20 19 18 17 16 15 14 14 13 12 13 13 13 12 12 12 12 13 14
27 27 25 23 22 22 21 19 17 17 17 17 17 17 17 16 16 16 15 15 14 13 13 11 9 9 9 8 7 6 4 4 4 3 3 3 2 2 2 2 2 2 2 2 3 3 3 3 3 3 3 4 4 5 6 7 9 11 13 14 15 17 18 19 20 20 20 20 20 18 17 16 15 14 13 13 13 13 13 13 12 12 12 11 11
26 26 25 23 22 21 19 17 16 16 16 15 16 16 16 16 16 16 15 15 15 14 13 12 11 10 10 9 7 6 5 4 4 4 4 4 4 4 3 3 3 3 3 3 3 4 3 3 3 3 3 3 4 4 5 6 7 8 10 12 13 15 16 17 18 18 19 19 20 19 18 17 15 14 14 14 13 13 13 13 12 11 11 9 8
27 27 25 23 21 19 18 17 16 15 15 15 16 17 16 16 16 16 15 15 15 15 14 13 12 11 11 9 8 8 6 5 5 4 5 5 5 5 5 5 4 4 4 4 4 4 4 4 5 4 4 4 4 4 5 5 6 7 8 10 11 12 14 14 15 16 17 18 18 18 18 17 16 15 14 13 13 12 12 12 11 10 9 8 7
26 25 24 22 21 19 19 18 16 16 16 16 16 17 17 16 16 15 15 15 15 15 15 14 13 12 11 10 9 9 8 7 6 5 5 6 6 6 6 6 6 6 5 5 5 6 5 5 6 5 5 5 5 5 5 6 7 7 8 9 10 11 12 13 13 14 15 16 16 17 17 17 16 15 14 13 13 12 11 10 10 8 7 7 6
25 24 22 21 20 20 19 18 17 16 16 16 16 16 16 16 16 15 15 15 15 15 15 15 14 13 12 11 10 10 9 8 7 6 6 7 7 7 7 7 7 7 7 6 6 7 7 7 7 7 6 6 6 6 7 7 8 8 8 9 10 11 11 12 12 12 12 13 14 14 15 15 15 15 14 13 12 12 10 9 8 7 6 5 4
23 22 21 19 19 20 19 18 17 16 15 15 16 15 15 16 16 16 15 15 15 15 15 15 14 14 13 12 11 11 10 10 9 8 7 8 8 8 8 8 7 7 7 7 7 8 8 8 8 8 8 8 8 8 8 9 9 10 9 10 10 11 11 11 11 11 11 11 12 13 13 13 13 13 13 12 11 11 10 8 7 6 5 4 3
21 21 20 18 18 18 17 16 15 15 14 14 15 15 14 15 16 16 16 16 15 15 15 15 14 14 13 13 12 12 12 11 11 9 9 9 9 9 8 8 8 8 8 7 8 8 8 9 9 9 9 9 9 9 10 10 10 11 11 11 12 12 11 11 10 10 10 10 11 11 12 12 12 12 11 11 11 10 9 8 7 5 3 2 2
20 19 18 17 16 16 15 14 14 14 14 14 15 15 15 15 15 16 16 16 16 16 16 15 15 14 13 13 13 13 12 12 12 11 10 10 10 10 9 9 9 8 8 8 8 8 9 9 10 10 10 10 10 10 11 11 11 11 11 11 12 12 12 11 11 11 10 10 10 10 10 11 11 11 11 10 10 9 9 8 7 5 3 1 2
Wind_Direction
250 252 255 260 265 260 249 245 246 248 251 257 263 266 266 264 266 269 271 270 271 277 282 286 288 289 290 291 291 290 285 280 277 274 273 272 272 272 270 268 266 264 265 264 262 261 260 259 259 257 256 259 263 267 274 279 283 286 289 293 294 287 273 261 257 262 261 262 266 268 273 280 282 286 292 292 291 293 293 293 297 301 305 307 306
248 252 255 258 260 256 247 245 247 251 255 260 264 266 268 268 269 269 269 270 275 279 282 284 285 286 289 290 289 285 279 276 274 272 271 271 271 271 270 268 266 264 263 263 262 261 261 260 260 259 260 263 266 270 274 277 280 282 284 288 292 294 290 275 265 262 259 260 262 262 264 271 277 284 290 292 292 294 292 287 289 295 299 301 299
248 250 253 255 257 254 249 248 250 253 258 262 266 267 266 266 268 269 270 275 278 280 280 281 282 286 289 289 285 278 275 273 272 270 268 269 270 270 270 269 266 264 262 262 261 260 260 259 259 260 262 263 264 266 269 271 273 276 279 283 288 293 299 294 278 268 263 261 259 258 263 270 276 281 288 291 290 291 292 290 290 292 295 297 296
246 247 250 254 256 253 250 249 251 255 259 263 263 262 264 266 268 269 272 277 279 279 277 278 282 286 287 284 278 273 271 270 269 269 266 266 267 269 270 270 269 267 264 262 262 260 259 259 258 259 259 259 260 261 263 265 267 269 273 279 284 288 293 298 289 275 268 264 261 259 263 270 276 281 286 288 288 289 290 291 291 291 290 292 293
243 246 250 253 253 250 249 249 251 257 260 260 259 261 265 266 267 270 274 277 276 274 276 279 284 285 281 277 273 270 269 268 268 268 268 268 268 269 271 270 269 268 266 264 262 260 259 258 258 259 258 256 256 257 257 258 262 265 269 273 277 281 285 289 291 283 271 262 260 262 264 266 271 279 283 287 290 290 289 288 288 289 290 289 289
241 245 248 250 249 248 248 249 252 256 256 255 258 261 263 264 268 272 273 271 271 274 279 282 282 280 275 272 271 269 268 267 267 267 268 268 268 270 271 270 269 268 266 265 263 260 258 257 257 257 257 256 255 253 253 256 260 263 265 267 271 276 279 281 286 287 278 265 259 261 264 264 264 271 278 284 289 290 289 289 287 286 289 289 288
239 243 245 246 244 243 245 250 253 252 249 251 256 259 262 266 270 271 268 268 273 278 281 281 279 275 271 270 270 269 268 267 266 266 266 266 268 270 272 271 270 269 267 266 264 261 258 256 255 254 253 253 252 251 253 256 260 263 264 265 266 267 270 274 279 283 279 271 261 255 258 263 265 267 272 277 280 281 283 287 287 285 285 287 287
237 240 241 242 240 238 244 250 250 246 245 251 257 260 264 267 267 266 268 273 278 280 280 279 279 275 272 272 270 269 269 268 267 268 268 268 268 270 272 272 271 270 268 266 264 262 259 257 255 253 251 250 250 251 254 255 258 260 259 258 259 259 261 266 270 272 273 271 264 255 252 255 258 260 261 262 265 268 269 272 278 283 286 288 286
235 237 237 238 239 240 244 244 241 241 247 253 258 261 263 264 264 267 272 278 280 280 279 279 279 278 275 274 272 268 266 266 268 270 271 273 274 275 275 275 273 272 270 269 265 262 261 259 257 255 254 253 252 251 251 252 253 253 252 251 253 255 257 258 259 259 260 261 259 259 255 244 240 244 246 244 248 259 267 271 276 282 287 287 283
233 234 235 237 241 243 242 237 237 244 250 254 258 261 261 262 265 270 276 280 280 280 281 280 278 275 272 272 269 265 264 265 268 270 268 269 273 276 277 277 274 271 269 268 265 263 262 262 260 258 256 254 251 247 246 247 246 245 248 250 252 252 251 250 250 248 247 250 248 247 249 240 228 230 237 243 248 259 270 274 276 279 282 283 282
233 234 235 239 242 242 236 233 239 247 251 253 256 259 261 264 269 274 279 280 281 282 281 278 273 268 266 267 267 267 269 271 274 274 270 268 270 271 273 274 272 269 266 265 263 261 261 262 263 262 258 254 249 245 244 244 245 245 245 246 248 249 248 246 246 244 242 243 243 238 236 236 232 228 231 238 244 253 265 270 270 273 273 270 275
232 234 236 239 238 234 231 233 241 248 251 252 255 260 264 266 271 276 279 281 282 281 279 275 270 266 266 268 270 272 275 277 278 277 274 274 273 271 272 273 271 267 263 261 261 258 255 258 263 264 261 258 254 251 248 245 245 245 245 245 245 246 246 245 245 245 242 241 242 239 236 236 236 234 233 239 246 251 258 265 269 271 267 261 263
230 233 237 238 234 230 232 238 245 251 254 255 258 262 264 267 272 277 280 282 281 278 275 273 271 271 271 273 275 277 278 280 281 279 276 277 277 277 278 278 278 275 268 261 257 254 251 253 258 262 263 261 257 255 254 252 249 246 245 246 246 247 248 247 246 245 244 242 241 242 241 239 238 237 236 240 248 251 250 255 262 268 269 266 265
228 233 237 237 235 234 239 245 250 254 255 257 260 262 264 269 275 279 280 281 278 275 274 274 275 275 276 277 279 281 281 283 285 282 280 281 281 284 287 291 300 307 296 272 257 251 250 250 252 259 262 260 257 254 254 254 253 250 248 247 246 246 246 246 246 245 244 242 241 243 244 242 241 243 243 244 246 247 247 251 256 262 265 266 269
227 234 237 238 237 237 242 248 252 253 255 258 260 261 265 272 276 277 277 277 276 276 277 278 279 278 279 280 283 285 285 286 288 284 282 283 287 291 298 310 316 322 325 302 269 256 254 251 251 257 260 260 259 256 254 253 251 250 250 250 249 248 246 245 244 243 243 242 242 244 244 242 243 244 246 246 248 250 250 252 256 260 265 270 274
227 232 236 239 240 240 245 250 251 253 256 258 258 261 268 271 272 274 277 278 279 279 279 280 280 282 284 284 285 287 287 288 290 287 285 288 292 297 305 317 317 315 328 329 299 271 260 253 252 257 259 261 263 259 254 251 248 245 247 249 251 252 252 251 248 245 244 243 244 245 245 245 245 244 245 245 247 250 251 252 254 256 260 268 272
227 231 237 240 242 245 247 249 250 253 256 255 257 263 267 268 270 274 277 278 279 279 280 282 283 284 287 287 287 290 291 293 295 292 291 293 296 302 310 316 318 313 314 326 324 299 274 262 260 261 263 266 269 265 254 243 240 243 244 246 249 250 254 257 256 251 248 245 245 247 247 248 247 245 244 241 240 241 241 241 243 244 246 253 260
228 232 238 242 246 248 248 247 250 254 255 255 259 264 265 267 273 277 276 275 277 279 282 285 285 283 286 288 290 291 293 297 300 296 295 295 296 306 315 318 318 313 307 312 322 319 302 283 272 267 267 271 275 272 257 239 235 238 242 245 245 247 254 258 256 255 253 249 247 247 247 248 247 244 242 240 239 237 233 232 234 237 242 246 251
230 236 241 245 248 248 245 246 249 253 256 259 262 264 267 272 276 276 275 274 276 280 282 282 284 286 288 290 292 291 291 296 303 300 296 296 298 308 315 315 313 310 307 305 306 306 305 297 282 270 269 273 275 271 261 246 237 235 239 241 241 247 255 257 253 254 254 251 249 248 246 246 245 244 242 239 237 236 235 236 238 238 244 249 255
233 238 243 245 245 243 242 244 249 254 258 262 266 268 271 275 275 273 274 274 275 280 281 281 285 289 290 293 295 294 293 299 308 303 293 291 301 311 310 307 306 305 304 301 297 292 291 291 289 280 271 270 271 269 267 261 251 242 236 231 234 250 259 256 252 253 252 251 252 251 249 248 245 244 243 238 235 234 234 237 239 240 244 249 254
232 236 239 238 237 236 239 244 251 256 260 263 268 271 270 270 270 271 274 276 278 281 283 284 288 290 293 297 298 298 300 303 306 302 293 295 306 311 305 298 298 299 296 292 285 279 281 290 292 285 274 271 274 277 278 276 271 262 248 235 239 254 261 255 252 252 248 248 252 250 251 252 248 245 243 238 234 233 232 233 235 238 242 245 248
229 232 231 230 230 232 237 245 251 256 260 264 268 269 267 265 268 270 273 276 279 281 284 288 289 291 297 300 299 303 310 309 302 298 300 304 308 307 298 291 290 288 287 287 282 276 280 289 287 280 275 275 277 278 278 276 274 273 268 255 251 257 258 254 250 246 240 241 243 242 244 246 245 244 241 237 234 232 231 232 234 237 241 244 244
226 226 223 224 228 232 237 244 248 252 258 263 266 266 264 264 267 269 270 274 277 279 283 287 288 292 298 303 307 314 318 305 293 301 308 310 308 303 294 288 285 283 285 288 288 286 289 288 282 277 275 275 275 275 276 276 275 273 273 271 267 262 258 252 244 236 233 233 231 233 237 238 238 240 239 236 234 231 230 232 233 237 242 244 243
221 220 219 222 227 232 237 242 246 250 255 258 260 260 261 263 266 267 268 271 273 276 280 284 285 288 295 303 313 320 314 289 291 306 314 313 306 301 296 290 286 285 288 291 293 294 291 284 277 274 273 274 277 278 277 277 277 278 280 280 279 276 270 259 242 228 225 223 221 227 234 235 234 237 239 239 236 232 231 231 233 235 237 238 238
217 218 217 220 226 231 236 240 243 249 250 250 251 253 256 262 266 266 267 268 267 269 275 281 283 284 290 301 309 311 301 297 307 315 316 311 305 304 301 295 291 289 289 291 292 289 283 278 276 277 278 283 288 290 288 284 284 287 288 287 283 279 273 268 251 227 217 216 218 225 232 235 237 240 244 244 239 234 231 229 230 231 231 233 236
216 217 216 220 224 227 233 237 241 246 244 240 242 247 252 259 265 266 268 266 263 265 273 279 283 285 287 291 297 303 306 312 317 317 313 306 307 311 308 302 297 294 294 295 292 283 279 282 288 289 289 291 290 288 287 286 284 283 280 279 279 272 262 261 254 234 220 218 219 224 231 237 240 243 244 241 236 233 230 226 226 228 228 229 234
213 213 214 218 221 224 231 236 240 243 236 230 234 242 247 254 260 262 262 261 262 266 270 272 277 283 284 285 295 306 310 314 315 315 312 306 306 310 313 311 304 301 302 299 288 276 280 287 290 287 283 282 280 277 277 278 277 277 275 275 280 276 263 257 254 245 235 228 225 227 232 236 238 238 236 231 229 231 230 225 223 225 224 224 227
211 212 214 216 218 223 228 232 237 237 229 223 228 236 242 247 253 255 254 256 260 264 267 275 281 281 279 287 302 304 305 310 313 314 309 303 303 310 318 312 304 304 305 294 275 283 292 289 284 280 278 278 277 274 274 274 277 284 289 294 301 299 286 269 258 254 251 244 237 233 232 233 232 230 228 227 227 229 228 224 225 228 225 220 221
210 212 214 214 216 221 224 229 234 233 226 223 225 233 238 242 248 252 251 251 259 265 272 283 288 284 283 299 302 295 299 306 309 306 301 299 303 312 314 307 304 315 327 305 293 301 298 289 289 299 309 319 321 319 320 323 323 325 332 338 340 341 343 333 304 285 275 263 249 237 231 230 230 228 225 222 223 226 225 221 224 229 227 221 220
208 210 212 213 215 217 220 225 230 230 226 224 225 232 236 235 240 253 258 256 259 265 269 275 277 278 291 306 301 292 295 300 303 304 304 306 310 310 310 313 324 341 338 315 304 306 304 313 355 12 7 5 4 355 350 348 345 344 349 354 355 355 359 1 355 341 324 302 275 250 236 231 231 229 223 219 219 221 220 218 221 225 224 221 220
207 208 210 212 214 215 219 223 226 226 224 223 223 231 238 234 232 243 256 261 260 259 263 270 274 279 293 301 299 295 295 296 302 309 313 318 317 311 319 347 356 334 317 301 295 315 24 28 28 28 20 15 13 360 351 350 349 346 344 346 352 357 357 358 358 351 340 328 314 289 257 238 231 227 222 220 219 215 214 218 222 222 220 220 219
209 209 210 211 211 213 216 218 220 221 220 220 220 226 239 246 238 230 234 250 261 260 263 273 279 280 287 291 294 298 299 299 308 318 323 328 323 317 342 21 12 336 309 282 243 64 51 42 37 27 15 10 7 358 352 351 348 345 341 338 340 346 348 352 355 350 342 337 329 316 300 270 242 230 224 220 217 212 213 219 223 222 220 220 218
212 211 210 208 207 209 212 212 214 216 216 217 217 217 227 244 247 235 228 234 245 248 254 283 304 299 295 289 293 305 308 305 314 325 333 335 329 320 349 27 18 356 342 79 89 65 48 42 36 25 14 8 1 355 355 355 352 348 344 337 335 337 339 348 355 348 340 338 337 329 322 311 283 254 235 224 217 214 216 223 227 227 225 221 216
214 213 211 207 205 206 207 209 211 213 214 215 215 216 221 229 239 246 248 248 244 236 234 246 280 304 303 293 305 322 326 323 332 343 346 349 350 314 255 262 336 13 37 68 71 56 42 35 29 20 13 7 2 357 356 356 354 352 348 341 337 336 338 347 355 346 337 339 343 340 335 328 313 291 270 250 233 222 218 220 223 227 229 228 222
213 212 211 209 208 208 208 209 209 210 213 214 213 216 219 221 226 238 247 254 258 253 246 243 245 260 296 314 335 348 354 358 5 9 11 13 14 266 237 236 10 44 49 57 59 55 45 33 25 19 14 8 5 3 360 358 356 354 351 347 342 339 341 351 351 339 332 337 343 342 339 337 330 316 296 278 265 248 231 222 219 220 224 227 225
210 209 208 208 211 211 210 210 210 211 214 214 213 216 218 218 224 230 229 233 244 253 261 260 226 187 185 212 360 12 24 34 36 35 33 28 24 183 156 101 75 65 60 58 55 53 49 38 28 23 18 13 12 10 6 3 360 357 354 349 344 342 346 350 343 332 329 335 340 338 338 337 336 333 320 297 280 272 262 246 231 222 219 219 221
208 207 207 208 211 210 210 212 212 213 214 213 214 218 217 217 225 230 224 221 225 231 243 255 213 178 183 195 209 59 81 66 50 49 49 47 61 98 99 89 79 70 63 56 50 48 48 44 36 29 24 20 19 16 14 11 7 4 4 360 355 352 350 343 334 328 331 336 337 336 336 334 334 335 331 318 302 288 280 275 264 240 222 217 217
208 209 209 209 209 209 209 209 208 209 211 213 215 217 216 216 224 229 225 219 216 217 224 226 203 172 172 206 340 5 243 220 227 113 77 74 79 86 89 87 80 71 61 53 47 45 43 41 40 36 30 27 26 23 20 17 15 14 14 12 12 9 2 353 346 343 341 339 337 336 333 329 329 332 330 322 315 307 295 288 287 274 240 221 216
208 208 209 209 208 208 208 208 208 208 209 212 214 215 214 217 222 223 220 218 216 216 217 215 203 185 166 301 347 359 348 208 180 106 78 76 78 83 87 86 79 70 59 49 42 37 36 38 40 38 34 31 30 28 24 20 18 19 20 20 21 19 14 8 3 359 354 347 341 338 334 330 328 328 326 321 315 313 308 297 291 288 273 241 224
204 203 204 205 205 206 208 209 211 212 210 210 212 212 212 215 217 216 214 216 218 218 216 217 212 191 149 28 321 327 342 133 127 102 85 88 85 82 84 82 75 65 54 42 36 30 26 26 28 29 31 29 26 25 24 20 17 18 21 22 21 19 16 13 9 5 1 356 350 343 337 335 333 329 324 320 317 312 308 302 294 287 281 267 243
202 200 200 200 201 202 203 207 213 213 210 209 210 211 210 212 212 212 211 213 218 218 216 218 214 191 155 112 290 291 301 164 143 121 98 97 88 82 85 81 70 65 51 31 26 24 19 16 16 15 17 18 17 16 18 18 16 18 20 20 20 17 15 13 10 6 3 360 356 351 344 340 338 334 325 319 319 314 305 301 298 289 282 276 260
201 198 197 196 197 198 199 204 210 211 208 208 210 210 210 209 208 209 210 213 217 217 215 215 211 196 175 161 191 235 271 224 187 176 150 132 103 77 89 77 53 55 34 14 9 10 9 9 9 4 4 7 9 10 13 16 16 17 17 16 15 13 11 10 9 5 1 359 358 356 352 346 341 335 327 322 323 320 313 307 303 294 284 277 262
201 200 197 195 196 199 201 203 203 202 204 207 209 209 209 208 208 209 211 213 217 217 215 214 211 203 198 198 206 224 249 237 210 211 218 209 216 262 222 237 289 299 314 326 330 339 349 357 2 4 6 8 9 11 14 15 14 15 14 14 13 11 8 7 6 4 0 358 357 356 354 351 346 339 334 331 328 324 319 315 310 301 291 280 262
201 200 198 197 199 202 204 202 199 200 204 207 207 208 208 209 209 210 211 214 217 217 216 216 213 210 211 217 224 233 240 230 218 225 237 240 248 257 254 254 261 267 276 284 290 304 319 331 343 358 8 12 14 18 18 15 14 14 12 10 9 8 7 5 4 2 359 356 355 354 353 353 351 346 340 336 332 327 323 320 316 309 299 284 263
200 199 198 199 201 203 203 201 200 202 204 203 204 206 207 209 210 211 213 215 216 216 216 216 215 214 216 222 227 232 233 231 232 239 246 253 262 268 272 272 266 263 268 276 280 289 297 306 317 332 347 356 3 7 7 10 15 15 12 10 7 5 4 2 360 359 358 356 353 352 351 352 353 352 347 341 335 330 324 319 316 311 302 286 266
201 200 199 199 200 200 200 200 202 203 202 201 202 204 205 209 212 213 213 215 215 216 216 216 215 216 219 222 227 232 235 236 241 246 252 262 270 274 277 279 276 273 275 276 277 283 290 294 301 310 319 330 341 349 351 355 1 5 7 7 5 1 0 358 355 355 357 356 353 351 350 351 353 354 351 346 340 332 323 318 314 310 301 289 271
201 199 199 200 201 200 199 200 202 203 202 203 203 204 205 209 212 213 214 215 216 217 219 219 218 219 222 224 228 233 236 237 244 252 258 264 270 274 276 277 276 273 272 273 274 277 281 285 291 297 303 310 320 331 335 339 345 352 356 358 358 358 357 353 351 352 355 355 353 352 351 351 353 355 355 353 347 339 328 321 318 312 302 293 278
200 199 200 201 202 200 199 199 200 202 203 204 204 206 209 211 212 214 215 216 217 218 220 220 220 221 223 226 229 233 235 237 242 249 255 260 267 272 274 274 274 271 270 271 274 274 276 278 281 286 291 296 303 314 321 325 332 341 345 348 352 353 351 348 346 347 350 353 354 354 353 352 353 355 356 355 351 347 338 329 323 316 307 299 275
200 199 199 201 202 202 201 201 202 203 205 205 205 207 211 212 215 218 219 218 220 222 222 222 222 222 224 227 230 233 235 237 240 247 253 257 263 267 269 270 272 271 269 270 271 271 273 274 276 280 285 290 293 301 308 314 322 331 338 343 345 345 343 343 343 343 344 348 352 353 353 355 357 358 359 359 358 355 347 338 331 324 314 302 262
201 201 201 203 204 202 202 204 205 208 210 209 207 209 212 214 217 220 219 218 221 223 224 224 225 226 227 229 231 233 236 238 241 246 251 255 258 263 267 268 270 271 271 272 272 270 271 272 273 276 281 284 287 291 297 305 316 326 334 339 340 339 337 338 340 341 342 346 350 352 353 354 356 359 1 4 5 3 357 350 346 338 321 297 227
203 203 204 207 205 201 201 203 206 209 212 211 210 213 215 216 219 220 219 219 222 224 225 227 229 231 233 234 234 237 240 241 242 246 251 253 256 262 266 269 271 272 272 272 272 271 271 271 272 275 278 281 284 288 291 300 311 321 329 334 335 335 334 335 338 341 342 343 345 348 351 355 357 360 2 5 8 10 7 358 351 346 338 301 192